Time,TemperatureF,DewpointF,PressureIn,WindDirection,WindDirectionDegrees,WindSpeedMPH,WindSpeedGustMPH,Humidity,HourlyPrecipIn,Conditions,Clouds,dailyrainin,SoftwareType,DateUTC
2013-03-16 00:00:00,52.7,45.0,29.98,SW,225,5.8,5.8,75,0.00,CLR,,0.00,WeatherDisplay:10.37,2013-03-16 04:00:00,
2013-03-16 00:05:00,52.7,45.0,29.98,SW,225,6.9,6.9,75,0.00,CLR,,0.00,WeatherDisplay:10.37,2013-03-16 04:05:00,
2013-03-16 00:10:00,52.7,45.0,29.98,WSW,248,6.9,6.9,75,0.00,CLR,,0.00,WeatherDisplay:10.37,2013-03-16 04:10:00,
2013-03-16 00:15:00,52.7,45.0,29.98,ESE,112,6.9,6.9,75,0.00,CLR,,0.00,WeatherDisplay:10.37,2013-03-16 04:15:00,
2013-03-16 00:20:00,52.9,45.2,29.98,SW,225,6.9,6.9,75,0.00,CLR,,0.00,WeatherDisplay:10.37,2013-03-16 04:20:00,
2013-03-16 00:25:00,52.9,45.2,29.98,East,90,6.9,6.9,75,0.00,CLR,,0.00,WeatherDisplay:10.37,2013-03-16 04:25:00,
2013-03-16 00:30:00,52.9,45.2,29.98,WSW,248,5.8,5.8,75,0.00,CLR,,0.00,WeatherDisplay:10.37,2013-03-16 04:30:00,
2013-03-16 00:35:00,52.7,45.3,29.98,SW,225,6.9,6.9,76,0.00,CLR,,0.00,WeatherDisplay:10.37,2013-03-16 04:35:00,
2013-03-16 00:40:00,52.7,45.3,29.97,WSW,248,4.6,4.6,76,0.00,CLR,,0.00,WeatherDisplay:10.37,2013-03-16 04:40:00,
2013-03-16 00:45:00,52.9,45.5,29.97,WSW,248,5.8,5.8,76,0.00,CLR,,0.00,WeatherDisplay:10.37,2013-03-16 04:45:00,
2013-03-16 00:50:00,52.9,45.5,29.97,SW,225,4.6,4.6,76,0.00,CLR,,0.00,WeatherDisplay:10.37,2013-03-16 04:50:00,
2013-03-16 00:55:00,52.9,45.5,29.97,WSW,248,7.4,7.4,76,0.00,CLR,,0.00,WeatherDisplay:10.37,2013-03-16 04:55:00,
2013-03-16 01:00:00,52.9,45.5,29.97,SW,225,5.8,5.8,76,0.00,CLR,,0.00,WeatherDisplay:10.37,2013-03-16 05:00:00,
2013-03-16 01:05:00,53.1,45.7,29.96,SW,225,12.7,12.7,76,0.00,CLR,,0.00,WeatherDisplay:10.37,2013-03-16 05:05:00,
2013-03-16 01:10:00,53.4,46.0,29.96,SW,225,5.4,5.6,76,0.00,CLR,,0.00,WeatherDisplay:10.37,2013-03-16 05:10:00,
2013-03-16 01:15:00,53.4,46.0,29.96,WSW,248,6.9,6.9,76,0.00,CLR,,0.00,WeatherDisplay:10.37,2013-03-16 05:15:00,
2013-03-16 01:20:00,53.2,45.8,29.96,WSW,248,7.4,7.4,76,0.00,CLR,,0.00,WeatherDisplay:10.37,2013-03-16 05:20:00,
2013-03-16 01:25:00,53.4,46.4,29.96,WSW,248,6.9,6.9,77,0.00,CLR,,0.00,WeatherDisplay:10.37,2013-03-16 05:25:00,
2013-03-16 01:30:00,53.4,46.4,29.96,WSW,248,9.2,9.2,77,0.00,CLR,,0.00,WeatherDisplay:10.37,2013-03-16 05:30:00,
2013-03-16 01:35:00,53.4,46.4,29.96,SW,225,9.5,9.5,77,0.00,CLR,,0.00,WeatherDisplay:10.37,2013-03-16 05:35:00,
2013-03-16 01:40:00,53.4,46.4,29.96,WSW,248,6.9,6.9,77,0.00,CLR,,0.00,WeatherDisplay:10.37,2013-03-16 05:40:00,
2013-03-16 01:45:00,53.4,46.4,29.96,WSW,248,5.8,5.8,77,0.00,CLR,,0.00,WeatherDisplay:10.37,2013-03-16 05:45:00,
2013-03-16 01:50:00,53.6,46.6,29.95,SE,135,6.9,6.9,77,0.00,CLR,,0.00,WeatherDisplay:10.37,2013-03-16 05:50:00,
2013-03-16 01:55:00,53.6,46.6,29.95,WSW,248,9.2,9.2,77,0.00,CLR,,0.00,WeatherDisplay:10.37,2013-03-16 05:55:00,
2013-03-16 02:00:00,53.6,46.6,29.95,SW,225,5.8,5.8,77,0.00,CLR,,0.00,WeatherDisplay:10.37,2013-03-16 06:00:00,
2013-03-16 02:05:00,53.8,46.8,29.95,SSW,202,6.9,6.9,77,0.00,CLR,,0.00,WeatherDisplay:10.37,2013-03-16 06:05:00,
2013-03-16 02:10:00,53.8,46.8,29.95,West,270,7.4,7.4,77,0.00,CLR,,0.00,WeatherDisplay:10.37,2013-03-16 06:10:00,
2013-03-16 02:15:00,53.8,46.8,29.94,WSW,248,8.1,8.1,77,0.00,CLR,,0.00,WeatherDisplay:10.37,2013-03-16 06:15:00,
2013-03-16 02:20:00,53.8,46.8,29.94,WSW,248,6.9,6.9,77,0.00,CLR,,0.00,WeatherDisplay:10.37,2013-03-16 06:20:00,
2013-03-16 02:25:00,54.0,47.0,29.94,WSW,248,5.8,5.8,77,0.00,CLR,,0.00,WeatherDisplay:10.37,2013-03-16 06:25:00,
2013-03-16 02:30:00,54.0,47.0,29.94,WSW,248,7.4,7.4,77,0.00,CLR,,0.00,WeatherDisplay:10.37,2013-03-16 06:30:00,
2013-03-16 02:35:00,54.0,47.0,29.94,West,270,6.9,6.9,77,0.00,CLR,,0.00,WeatherDisplay:10.37,2013-03-16 06:35:00,
2013-03-16 02:40:00,54.1,47.0,29.94,SSW,202,5.8,5.8,77,0.00,CLR,,0.00,WeatherDisplay:10.37,2013-03-16 06:40:00,
2013-03-16 02:45:00,54.1,47.0,29.94,SW,225,8.1,8.1,77,0.00,CLR,,0.00,WeatherDisplay:10.37,2013-03-16 06:45:00,
2013-03-16 02:50:00,54.3,47.2,29.93,WSW,248,6.9,6.9,77,0.00,CLR,,0.00,WeatherDisplay:10.37,2013-03-16 06:50:00,
2013-03-16 02:55:00,54.3,47.2,29.93,South,180,6.9,6.9,77,0.00,CLR,,0.00,WeatherDisplay:10.37,2013-03-16 06:55:00,
2013-03-16 03:00:00,54.3,47.2,29.93,SW,225,5.8,5.8,77,0.00,CLR,,0.00,WeatherDisplay:10.37,2013-03-16 07:00:00,
2013-03-16 03:05:00,54.3,47.2,29.93,SW,225,6.9,6.9,77,0.00,CLR,,0.00,WeatherDisplay:10.37,2013-03-16 07:05:00,
2013-03-16 03:10:00,54.7,47.6,29.93,SW,225,8.1,8.1,77,0.00,CLR,,0.00,WeatherDisplay:10.37,2013-03-16 07:10:00,
2013-03-16 03:15:00,54.5,47.4,29.92,SSW,202,6.9,6.9,77,0.00,CLR,,0.00,WeatherDisplay:10.37,2013-03-16 07:15:00,
2013-03-16 03:20:00,54.5,47.4,29.92,SSW,202,6.9,6.9,77,0.00,CLR,,0.00,WeatherDisplay:10.37,2013-03-16 07:20:00,
2013-03-16 03:25:00,54.7,47.6,29.92,South,180,8.1,8.1,77,0.00,CLR,,0.00,WeatherDisplay:10.37,2013-03-16 07:25:00,
2013-03-16 03:31:00,54.7,47.6,29.92,ESE,112,9.2,9.2,77,0.00,CLR,,0.00,WeatherDisplay:10.37,2013-03-16 07:31:00,
2013-03-16 03:36:00,54.7,47.6,29.92,WSW,248,5.8,5.8,77,0.00,CLR,,0.00,WeatherDisplay:10.37,2013-03-16 07:36:00,
2013-03-16 03:41:00,54.7,47.6,29.91,WSW,248,6.9,6.9,77,0.00,CLR,,0.00,WeatherDisplay:10.37,2013-03-16 07:41:00,
2013-03-16 03:46:00,54.7,48.0,29.91,South,180,7.4,7.4,78,0.00,CLR,,0.00,WeatherDisplay:10.37,2013-03-16 07:46:00,
2013-03-16 03:51:00,54.7,48.0,29.91,WSW,248,7.4,7.4,78,0.00,CLR,,0.00,WeatherDisplay:10.37,2013-03-16 07:51:00,
2013-03-16 03:56:00,54.9,48.2,29.91,SSW,202,6.9,6.9,78,0.00,CLR,,0.00,WeatherDisplay:10.37,2013-03-16 07:56:00,
2013-03-16 04:01:00,55.0,48.3,29.91,West,270,9.2,9.2,78,0.00,CLR,,0.00,WeatherDisplay:10.37,2013-03-16 08:01:00,
2013-03-16 04:06:00,55.0,48.3,29.90,SW,225,6.9,6.9,78,0.00,CLR,,0.00,WeatherDisplay:10.37,2013-03-16 08:06:00,
2013-03-16 04:11:00,55.0,48.3,29.90,West,270,8.1,8.1,78,0.00,CLR,,0.00,WeatherDisplay:10.37,2013-03-16 08:11:00,
2013-03-16 04:16:00,55.2,48.5,29.90,SW,225,8.1,8.1,78,0.00,CLR,,0.00,WeatherDisplay:10.37,2013-03-16 08:16:00,
2013-03-16 04:21:00,55.2,48.5,29.90,WSW,248,5.8,5.8,78,0.00,CLR,,0.00,WeatherDisplay:10.37,2013-03-16 08:21:00,
2013-03-16 04:26:00,55.2,48.8,29.89,WSW,248,8.1,8.1,79,0.00,CLR,,0.00,WeatherDisplay:10.37,2013-03-16 08:26:00,
2013-03-16 04:31:00,55.2,48.8,29.89,West,270,6.9,6.9,79,0.00,CLR,,0.00,WeatherDisplay:10.37,2013-03-16 08:31:00,
2013-03-16 04:36:00,55.2,48.8,29.89,WSW,248,6.9,6.9,79,0.00,CLR,,0.00,WeatherDisplay:10.37,2013-03-16 08:36:00,
2013-03-16 04:42:00,55.2,48.8,29.89,WSW,248,6.9,6.9,79,0.00,CLR,,0.00,WeatherDisplay:10.37,2013-03-16 08:42:00,
2013-03-16 04:47:00,55.2,48.8,29.89,SW,225,6.9,6.9,79,0.00,CLR,,0.00,WeatherDisplay:10.37,2013-03-16 08:47:00,
2013-03-16 04:52:00,55.0,48.6,29.88,SSW,202,5.4,5.4,79,0.00,CLR,,0.00,WeatherDisplay:10.37,2013-03-16 08:52:00,
2013-03-16 04:57:00,55.0,48.6,29.88,West,270,6.4,6.4,79,0.00,CLR,,0.00,WeatherDisplay:10.37,2013-03-16 08:57:00,
2013-03-16 05:02:00,55.0,48.9,29.88,SW,225,6.9,6.9,80,0.00,CLR,,0.00,WeatherDisplay:10.37,2013-03-16 09:02:00,
2013-03-16 05:07:00,55.0,48.9,29.89,WSW,248,6.9,6.9,80,0.00,CLR,,0.00,WeatherDisplay:10.37,2013-03-16 09:07:00,
2013-03-16 05:12:00,54.9,48.8,29.89,South,180,5.4,5.4,80,0.00,CLR,,0.00,WeatherDisplay:10.37,2013-03-16 09:12:00,
2013-03-16 05:17:00,54.9,49.2,29.89,WSW,248,5.8,5.8,81,0.00,CLR,,0.00,WeatherDisplay:10.37,2013-03-16 09:17:00,
2013-03-16 05:22:00,54.7,49.0,29.89,WSW,248,4.6,4.6,81,0.00,CLR,,0.00,WeatherDisplay:10.37,2013-03-16 09:22:00,
2013-03-16 05:27:00,54.5,48.8,29.89,SW,225,4.6,4.6,81,0.00,CLR,,0.00,WeatherDisplay:10.37,2013-03-16 09:27:00,
2013-03-16 05:32:00,54.5,48.8,29.89,SW,225,5.8,5.8,81,0.00,CLR,,0.00,WeatherDisplay:10.37,2013-03-16 09:32:00,
2013-03-16 05:37:00,54.5,49.1,29.89,South,180,4.3,4.3,82,0.00,CLR,,0.00,WeatherDisplay:10.37,2013-03-16 09:37:00,
2013-03-16 05:42:00,54.5,49.1,29.89,WSW,248,5.8,5.8,82,0.00,CLR,,0.00,WeatherDisplay:10.37,2013-03-16 09:42:00,
2013-03-16 05:47:00,54.5,49.1,29.89,WSW,248,4.6,4.6,82,0.00,CLR,,0.00,WeatherDisplay:10.37,2013-03-16 09:47:00,
2013-03-16 05:52:00,54.5,49.1,29.89,West,270,5.8,5.8,82,0.00,CLR,,0.00,WeatherDisplay:10.37,2013-03-16 09:52:00,
2013-03-16 05:57:00,54.5,49.1,29.89,WSW,248,6.9,6.9,82,0.00,CLR,,0.00,WeatherDisplay:10.37,2013-03-16 09:57:00,
2013-03-16 06:02:00,54.5,49.1,29.90,WSW,248,5.8,5.8,82,0.00,CLR,,0.00,WeatherDisplay:10.37,2013-03-16 10:02:00,
2013-03-16 06:07:00,54.5,49.1,29.90,SW,225,6.9,6.9,82,0.00,CLR,,0.00,WeatherDisplay:10.37,2013-03-16 10:07:00,
2013-03-16 06:12:00,54.5,49.1,29.90,SW,225,4.6,4.6,82,0.00,CLR,,0.00,WeatherDisplay:10.37,2013-03-16 10:12:00,
2013-03-16 06:17:00,54.3,48.9,29.90,SW,225,4.6,4.6,82,0.00,CLR,,0.00,WeatherDisplay:10.37,2013-03-16 10:17:00,
2013-03-16 06:22:00,54.1,49.1,29.90,SW,225,4.6,4.6,83,0.00,CLR,,0.00,WeatherDisplay:10.37,2013-03-16 10:22:00,
2013-03-16 06:27:00,54.1,49.1,29.89,WSW,248,6.9,6.9,83,0.00,CLR,,0.00,WeatherDisplay:10.37,2013-03-16 10:27:00,
2013-03-16 06:32:00,54.0,49.0,29.89,South,180,3.5,3.5,83,0.00,CLR,,0.00,WeatherDisplay:10.37,2013-03-16 10:32:00,
2013-03-16 06:37:00,54.0,49.0,29.89,WSW,248,5.8,5.8,83,0.00,CLR,,0.00,WeatherDisplay:10.37,2013-03-16 10:37:00,
2013-03-16 06:42:00,54.0,49.0,29.89,West,270,5.8,5.8,83,0.00,CLR,,0.00,WeatherDisplay:10.37,2013-03-16 10:42:00,
2013-03-16 06:47:00,54.0,49.0,29.89,WSW,248,5.4,5.4,83,0.00,CLR,,0.00,WeatherDisplay:10.37,2013-03-16 10:47:00,
2013-03-16 06:52:00,54.0,49.0,29.89,WSW,248,5.8,5.8,83,0.00,CLR,,0.00,WeatherDisplay:10.37,2013-03-16 10:52:00,
2013-03-16 06:57:00,53.8,48.8,29.89,WSW,248,4.6,4.6,83,0.00,CLR,,0.00,WeatherDisplay:10.37,2013-03-16 10:57:00,
2013-03-16 07:02:00,53.8,48.8,29.89,SW,225,5.8,5.8,83,0.00,CLR,,0.00,WeatherDisplay:10.37,2013-03-16 11:02:00,
2013-03-16 07:07:00,53.8,48.1,29.89,West,270,4.6,4.6,81,0.00,CLR,,0.00,WeatherDisplay:10.37,2013-03-16 11:07:00,
2013-03-16 07:12:00,53.8,48.1,29.89,SW,225,4.6,4.6,81,0.00,CLR,,0.00,WeatherDisplay:10.37,2013-03-16 11:12:00,
2013-03-16 07:17:00,53.6,48.2,29.90,WSW,248,4.6,4.6,82,0.00,CLR,,0.00,WeatherDisplay:10.37,2013-03-16 11:17:00,
2013-03-16 07:22:00,53.6,48.2,29.90,SSW,202,5.8,5.8,82,0.00,CLR,,0.00,WeatherDisplay:10.37,2013-03-16 11:22:00,
2013-03-16 07:27:00,53.6,48.2,29.89,East,90,4.6,4.6,82,0.00,CLR,,0.00,WeatherDisplay:10.37,2013-03-16 11:27:00,
2013-03-16 07:32:00,53.6,48.2,29.89,South,180,4.6,4.6,82,0.00,CLR,,0.00,WeatherDisplay:10.37,2013-03-16 11:32:00,
2013-03-16 07:38:00,53.6,48.2,29.89,WSW,248,3.5,0.0,82,0.00,CLR,,0.00,WeatherDisplay:10.37,2013-03-16 11:38:00,
2013-03-16 07:43:00,54.0,48.3,29.89,SSW,202,5.8,5.8,81,0.00,CLR,,0.00,WeatherDisplay:10.37,2013-03-16 11:43:00,
2013-03-16 07:48:00,54.1,48.4,29.89,SW,225,5.8,5.8,81,0.00,CLR,,0.00,WeatherDisplay:10.37,2013-03-16 11:48:00,
2013-03-16 07:53:00,54.1,48.4,29.89,SW,225,3.5,3.5,81,0.00,CLR,,0.00,WeatherDisplay:10.37,2013-03-16 11:53:00,
2013-03-16 07:58:00,54.3,48.6,29.89,WSW,248,4.6,4.6,81,0.00,CLR,,0.00,WeatherDisplay:10.37,2013-03-16 11:58:00,
2013-03-16 08:03:00,54.3,48.6,29.89,SSW,202,0.0,0.0,81,0.00,CLR,,0.00,WeatherDisplay:10.37,2013-03-16 12:03:00,
2013-03-16 08:08:00,54.7,48.6,29.90,West,270,4.6,4.6,80,0.00,CLR,,0.00,WeatherDisplay:10.37,2013-03-16 12:08:00,
2013-03-16 08:13:00,54.9,48.8,29.90,SE,135,4.6,4.6,80,0.00,CLR,,0.00,WeatherDisplay:10.37,2013-03-16 12:13:00,
2013-03-16 08:18:00,55.2,49.1,29.90,SW,225,4.6,4.6,80,0.00,CLR,,0.00,WeatherDisplay:10.37,2013-03-16 12:18:00,
2013-03-16 08:23:00,55.6,48.8,29.90,SW,225,6.9,6.9,78,0.00,CLR,,0.00,WeatherDisplay:10.37,2013-03-16 12:23:00,
2013-03-16 08:28:00,55.8,49.0,29.90,South,180,5.8,5.8,78,0.00,CLR,,0.00,WeatherDisplay:10.37,2013-03-16 12:28:00,
2013-03-16 08:33:00,56.1,49.3,29.90,WSW,248,4.6,4.6,78,0.00,CLR,,0.00,WeatherDisplay:10.37,2013-03-16 12:33:00,
2013-03-16 08:38:00,56.5,49.7,29.90,WSW,248,4.3,4.3,78,0.00,CLR,,0.00,WeatherDisplay:10.37,2013-03-16 12:38:00,
2013-03-16 08:43:00,56.8,49.0,29.90,SW,225,3.3,3.3,75,0.00,CLR,,0.00,WeatherDisplay:10.37,2013-03-16 12:43:00,
2013-03-16 08:48:00,57.4,49.5,29.90,SW,225,5.4,5.4,75,0.00,CLR,,0.00,WeatherDisplay:10.37,2013-03-16 12:48:00,
2013-03-16 08:53:00,57.6,49.4,29.90,WSW,248,4.6,4.6,74,0.00,CLR,,0.00,WeatherDisplay:10.37,2013-03-16 12:53:00,
2013-03-16 08:58:00,57.7,49.5,29.90,WSW,248,5.4,5.4,74,0.00,CLR,,0.00,WeatherDisplay:10.37,2013-03-16 12:58:00,
2013-03-16 09:03:00,57.7,49.5,29.90,SW,225,5.8,5.8,74,0.00,CLR,,0.00,WeatherDisplay:10.37,2013-03-16 13:03:00,
2013-03-16 09:08:00,57.6,49.0,29.90,SE,135,5.8,5.8,73,0.00,CLR,,0.00,WeatherDisplay:10.37,2013-03-16 13:08:00,
2013-03-16 09:13:00,57.7,49.5,29.90,West,270,5.8,5.8,74,0.00,CLR,,0.00,WeatherDisplay:10.37,2013-03-16 13:13:00,
2013-03-16 09:18:00,57.7,49.5,29.90,SW,225,5.8,5.8,74,0.00,CLR,,0.00,WeatherDisplay:10.37,2013-03-16 13:18:00,
2013-03-16 09:23:00,57.9,49.3,29.90,SSW,202,4.6,4.6,73,0.00,CLR,,0.00,WeatherDisplay:10.37,2013-03-16 13:23:00,
2013-03-16 09:28:00,58.1,49.5,29.90,WSW,248,3.5,3.5,73,0.00,CLR,,0.00,WeatherDisplay:10.37,2013-03-16 13:28:00,
2013-03-16 09:33:00,58.1,49.9,29.90,WSW,248,6.9,6.9,74,0.00,CLR,,0.00,WeatherDisplay:10.37,2013-03-16 13:33:00,
2013-03-16 09:38:00,58.3,49.7,29.90,WSW,248,3.5,3.5,73,0.00,CLR,,0.00,WeatherDisplay:10.37,2013-03-16 13:38:00,
2013-03-16 09:43:00,58.6,50.0,29.90,South,180,3.5,3.5,73,0.00,CLR,,0.00,WeatherDisplay:10.37,2013-03-16 13:43:00,
2013-03-16 09:48:00,58.8,49.4,29.90,NNE,22,5.4,5.4,71,0.00,CLR,,0.00,WeatherDisplay:10.37,2013-03-16 13:48:00,
2013-03-16 09:53:00,58.8,49.4,29.89,WSW,248,6.9,6.9,71,0.00,CLR,,0.00,WeatherDisplay:10.37,2013-03-16 13:53:00,
2013-03-16 09:58:00,58.8,49.4,29.89,WSW,248,6.9,6.9,71,0.00,CLR,,0.00,WeatherDisplay:10.37,2013-03-16 13:58:00,
2013-03-16 10:03:00,59.0,49.6,29.90,ESE,112,5.8,5.8,71,0.00,CLR,,0.00,WeatherDisplay:10.37,2013-03-16 14:03:00,
2013-03-16 10:08:00,59.7,49.5,29.90,SW,225,5.8,5.8,69,0.00,CLR,,0.00,WeatherDisplay:10.37,2013-03-16 14:08:00,
2013-03-16 10:13:00,60.1,49.9,29.90,SW,225,5.8,5.8,69,0.00,CLR,,0.00,WeatherDisplay:10.37,2013-03-16 14:13:00,
2013-03-16 10:18:00,59.4,49.2,29.89,SW,225,5.8,5.8,69,0.00,CLR,,0.00,WeatherDisplay:10.37,2013-03-16 14:18:00,
2013-03-16 10:23:00,59.5,49.3,29.89,SW,225,5.8,5.8,69,0.00,CLR,,0.00,WeatherDisplay:10.37,2013-03-16 14:23:00,
2013-03-16 10:28:00,60.6,50.0,29.89,WSW,248,4.6,4.6,68,0.00,CLR,,0.00,WeatherDisplay:10.37,2013-03-16 14:28:00,
2013-03-16 10:33:00,61.2,49.7,29.89,SW,225,6.4,6.4,66,0.00,CLR,,0.00,WeatherDisplay:10.37,2013-03-16 14:33:00,
2013-03-16 10:38:00,61.3,49.4,29.88,WSW,248,6.9,6.9,65,0.00,CLR,,0.00,WeatherDisplay:10.37,2013-03-16 14:38:00,
2013-03-16 10:43:00,61.9,50.0,29.88,WSW,248,6.9,6.9,65,0.00,CLR,,0.00,WeatherDisplay:10.37,2013-03-16 14:43:00,
2013-03-16 10:48:00,62.1,50.2,29.88,SW,225,6.9,6.9,65,0.00,CLR,,0.00,WeatherDisplay:10.37,2013-03-16 14:48:00,
2013-03-16 10:53:00,64.0,50.3,29.88,WSW,248,5.8,5.9,61,0.00,CLR,,0.00,WeatherDisplay:10.37,2013-03-16 14:53:00,
2013-03-16 10:58:00,62.4,50.1,29.88,West,270,6.9,6.9,64,0.00,CLR,,0.00,WeatherDisplay:10.37,2013-03-16 14:58:00,
2013-03-16 11:03:00,63.0,50.2,29.87,SW,225,4.6,4.6,63,0.00,CLR,,0.00,WeatherDisplay:10.37,2013-03-16 15:03:00,
2013-03-16 11:08:00,63.3,50.9,29.87,ESE,112,6.9,6.9,64,0.00,CLR,,0.00,WeatherDisplay:10.37,2013-03-16 15:08:00,
2013-03-16 11:13:00,62.4,49.6,29.87,WSW,248,6.9,6.9,63,0.00,CLR,,0.00,WeatherDisplay:10.37,2013-03-16 15:13:00,
2013-03-16 11:18:00,61.9,49.6,29.87,West,270,6.9,6.9,64,0.00,CLR,,0.00,WeatherDisplay:10.37,2013-03-16 15:18:00,
2013-03-16 11:23:00,61.9,50.0,29.87,WSW,248,6.9,6.9,65,0.00,CLR,,0.00,WeatherDisplay:10.37,2013-03-16 15:23:00,
2013-03-16 11:28:00,61.9,50.4,29.86,West,270,6.9,6.9,66,0.00,CLR,,0.00,WeatherDisplay:10.37,2013-03-16 15:28:00,
2013-03-16 11:33:00,62.8,50.0,29.86,West,270,6.4,6.4,63,0.00,CLR,,0.00,WeatherDisplay:10.37,2013-03-16 15:33:00,
2013-03-16 11:38:00,63.3,50.5,29.87,West,270,6.9,6.9,63,0.00,CLR,,0.00,WeatherDisplay:10.37,2013-03-16 15:38:00,
2013-03-16 11:43:00,64.9,50.7,29.87,SW,225,6.9,6.9,60,0.00,CLR,,0.00,WeatherDisplay:10.37,2013-03-16 15:43:00,
2013-03-16 11:49:00,63.7,49.5,29.87,West,270,5.8,5.8,60,0.00,CLR,,0.00,WeatherDisplay:10.37,2013-03-16 15:49:00,
2013-03-16 11:53:00,64.0,48.9,29.86,WSW,248,8.4,8.4,58,0.00,CLR,,0.00,WeatherDisplay:10.37,2013-03-16 15:53:00,
2013-03-16 11:59:00,64.8,49.2,29.86,WSW,248,6.9,6.9,57,0.00,CLR,,0.00,WeatherDisplay:10.37,2013-03-16 15:59:00,
2013-03-16 12:04:00,64.6,49.5,29.86,WSW,248,6.9,6.9,58,0.00,CLR,,0.00,WeatherDisplay:10.37,2013-03-16 16:04:00,
2013-03-16 12:09:00,62.1,49.8,29.86,ESE,112,6.9,6.9,64,0.00,CLR,,0.00,WeatherDisplay:10.37,2013-03-16 16:09:00,
2013-03-16 12:14:00,62.1,48.9,29.85,West,270,8.4,8.4,62,0.00,CLR,,0.00,WeatherDisplay:10.37,2013-03-16 16:14:00,
2013-03-16 12:19:00,63.3,49.6,29.85,SW,225,6.9,6.9,61,0.00,CLR,,0.00,WeatherDisplay:10.37,2013-03-16 16:19:00,
2013-03-16 12:24:00,62.1,49.4,29.85,SW,225,6.9,6.9,63,0.00,CLR,,0.00,WeatherDisplay:10.37,2013-03-16 16:24:00,
2013-03-16 12:29:00,64.0,50.3,29.85,SW,225,6.9,6.9,61,0.00,CLR,,0.00,WeatherDisplay:10.37,2013-03-16 16:29:00,
2013-03-16 12:34:00,63.3,49.2,29.85,SW,225,8.1,8.1,60,0.00,CLR,,0.00,WeatherDisplay:10.37,2013-03-16 16:34:00,
2013-03-16 12:39:00,63.9,49.7,29.85,SW,225,6.9,6.9,60,0.00,CLR,,0.00,WeatherDisplay:10.37,2013-03-16 16:39:00,
2013-03-16 12:44:00,64.2,49.6,29.85,SW,225,6.9,6.9,59,0.00,CLR,,0.00,WeatherDisplay:10.37,2013-03-16 16:44:00,
2013-03-16 12:49:00,63.7,50.0,29.85,SW,225,8.1,8.1,61,0.00,CLR,,0.00,WeatherDisplay:10.37,2013-03-16 16:49:00,
2013-03-16 12:54:00,64.0,50.3,29.84,West,270,5.4,5.4,61,0.00,CLR,,0.00,WeatherDisplay:10.37,2013-03-16 16:54:00,
2013-03-16 12:59:00,63.7,50.4,29.84,WSW,248,8.1,8.1,62,0.00,CLR,,0.00,WeatherDisplay:10.37,2013-03-16 16:59:00,
2013-03-16 13:04:00,64.6,50.8,29.83,WSW,248,6.9,6.9,61,0.00,CLR,,0.00,WeatherDisplay:10.37,2013-03-16 17:04:00,
2013-03-16 13:09:00,64.4,51.1,29.83,SW,225,6.9,6.9,62,0.00,CLR,,0.00,WeatherDisplay:10.37,2013-03-16 17:09:00,
2013-03-16 13:14:00,63.7,50.9,29.84,SW,225,8.1,8.1,63,0.00,CLR,,0.00,WeatherDisplay:10.37,2013-03-16 17:14:00,
2013-03-16 13:19:00,63.3,50.9,29.84,WSW,248,8.1,8.1,64,0.00,CLR,,0.00,WeatherDisplay:10.37,2013-03-16 17:19:00,
2013-03-16 13:24:00,63.1,50.7,29.84,WSW,248,7.4,7.4,64,0.00,CLR,,0.00,WeatherDisplay:10.37,2013-03-16 17:24:00,
2013-03-16 13:29:00,65.1,52.2,29.83,SW,225,6.9,6.9,63,0.00,CLR,,0.00,WeatherDisplay:10.37,2013-03-16 17:29:00,
2013-03-16 13:34:00,63.3,50.9,29.83,SW,225,9.2,9.2,64,0.00,CLR,,0.00,WeatherDisplay:10.37,2013-03-16 17:34:00,
2013-03-16 13:39:00,64.0,51.6,29.82,WSW,248,8.4,8.4,64,0.00,CLR,,0.00,WeatherDisplay:10.37,2013-03-16 17:39:00,
2013-03-16 13:44:00,64.4,52.4,29.82,SW,225,7.4,7.4,65,0.00,CLR,,0.00,WeatherDisplay:10.37,2013-03-16 17:44:00,
2013-03-16 13:49:00,63.1,51.1,29.82,SSW,202,11.5,11.5,65,0.00,CLR,,0.00,WeatherDisplay:10.37,2013-03-16 17:49:00,
2013-03-16 13:54:00,63.3,51.7,29.82,West,270,7.4,7.4,66,0.00,CLR,,0.00,WeatherDisplay:10.37,2013-03-16 17:54:00,
2013-03-16 13:59:00,62.2,51.1,29.82,SW,225,6.9,6.9,67,0.00,CLR,,0.00,WeatherDisplay:10.37,2013-03-16 17:59:00,
2013-03-16 14:04:00,63.0,51.9,29.82,SW,225,6.9,6.9,67,0.00,CLR,,0.00,WeatherDisplay:10.37,2013-03-16 18:04:00,
2013-03-16 14:09:00,63.3,51.7,29.82,WSW,248,7.4,7.4,66,0.00,CLR,,0.00,WeatherDisplay:10.37,2013-03-16 18:09:00,
2013-03-16 14:14:00,63.3,52.2,29.82,SW,225,6.4,6.4,67,0.00,CLR,,0.00,WeatherDisplay:10.37,2013-03-16 18:14:00,
2013-03-16 14:19:00,62.8,52.1,29.81,WSW,248,6.9,6.9,68,0.00,CLR,,0.00,WeatherDisplay:10.37,2013-03-16 18:19:00,
2013-03-16 14:24:00,62.6,51.5,29.81,WSW,248,9.2,9.2,67,0.00,CLR,,0.00,WeatherDisplay:10.37,2013-03-16 18:24:00,
2013-03-16 14:29:00,61.7,51.4,29.81,West,270,9.5,9.5,69,0.00,CLR,,0.00,WeatherDisplay:10.37,2013-03-16 18:29:00,
2013-03-16 14:34:00,62.2,51.1,29.81,West,270,9.5,9.5,67,0.00,CLR,,0.00,WeatherDisplay:10.37,2013-03-16 18:34:00,
2013-03-16 14:39:00,62.2,51.5,29.80,SW,225,6.9,6.9,68,0.00,CLR,,0.00,WeatherDisplay:10.37,2013-03-16 18:39:00,
2013-03-16 14:44:00,63.5,51.9,29.80,SW,225,8.4,8.4,66,0.00,CLR,,0.00,WeatherDisplay:10.37,2013-03-16 18:44:00,
2013-03-16 14:49:00,63.3,51.7,29.80,SW,225,9.5,9.5,66,0.00,CLR,,0.00,WeatherDisplay:10.37,2013-03-16 18:49:00,
2013-03-16 14:54:00,63.3,52.2,29.79,WSW,248,7.4,7.4,67,0.00,CLR,,0.00,WeatherDisplay:10.37,2013-03-16 18:54:00,
2013-03-16 14:59:00,63.9,51.9,29.79,West,270,9.2,9.2,65,0.00,CLR,,0.00,WeatherDisplay:10.37,2013-03-16 18:59:00,
2013-03-16 15:04:00,63.7,51.7,29.79,SW,225,6.9,6.9,65,0.00,CLR,,0.00,WeatherDisplay:10.37,2013-03-16 19:04:00,
2013-03-16 15:09:00,63.7,51.3,29.79,WSW,248,9.2,9.2,64,0.00,CLR,,0.00,WeatherDisplay:10.37,2013-03-16 19:09:00,
2013-03-16 15:14:00,63.7,51.7,29.78,WSW,248,8.1,8.2,65,0.00,CLR,,0.00,WeatherDisplay:10.37,2013-03-16 19:14:00,
2013-03-16 15:19:00,63.1,51.1,29.78,WSW,248,11.5,11.5,65,0.00,CLR,,0.00,WeatherDisplay:10.37,2013-03-16 19:19:00,
2013-03-16 15:24:00,62.8,51.7,29.78,WSW,248,9.2,9.2,67,0.00,CLR,,0.00,WeatherDisplay:10.37,2013-03-16 19:24:00,
2013-03-16 15:29:00,63.5,51.9,29.78,SSW,202,9.2,9.2,66,0.00,CLR,,0.00,WeatherDisplay:10.37,2013-03-16 19:29:00,
2013-03-16 15:34:00,63.0,51.5,29.78,WSW,248,9.5,9.5,66,0.00,CLR,,0.00,WeatherDisplay:10.37,2013-03-16 19:34:00,
2013-03-16 15:39:00,62.8,51.7,29.78,WSW,248,8.1,8.1,67,0.00,CLR,,0.00,WeatherDisplay:10.37,2013-03-16 19:39:00,
2013-03-16 15:44:00,65.1,52.2,29.78,SSW,202,6.9,6.9,63,0.00,CLR,,0.00,WeatherDisplay:10.37,2013-03-16 19:44:00,
2013-03-16 15:49:00,66.2,52.8,29.78,West,270,6.9,6.9,62,0.00,CLR,,0.00,WeatherDisplay:10.37,2013-03-16 19:49:00,
2013-03-16 15:54:00,64.8,52.3,29.78,West,270,9.2,9.2,64,0.00,CLR,,0.00,WeatherDisplay:10.37,2013-03-16 19:54:00,
2013-03-16 15:59:00,65.5,52.1,29.78,WSW,248,6.9,6.9,62,0.00,CLR,,0.00,WeatherDisplay:10.37,2013-03-16 19:59:00,
2013-03-16 16:04:00,64.9,52.0,29.78,WSW,248,10.5,10.5,63,0.00,CLR,,0.00,WeatherDisplay:10.37,2013-03-16 20:04:00,
2013-03-16 16:09:00,63.9,52.3,29.78,SW,225,5.8,5.8,66,0.00,CLR,,0.00,WeatherDisplay:10.37,2013-03-16 20:09:00,
2013-03-16 16:14:00,65.7,51.9,29.78,SW,225,6.9,6.9,61,0.00,CLR,,0.00,WeatherDisplay:10.37,2013-03-16 20:14:00,
2013-03-16 16:19:00,63.9,51.5,29.78,WSW,248,6.9,6.9,64,0.00,CLR,,0.00,WeatherDisplay:10.37,2013-03-16 20:19:00,
2013-03-16 16:25:00,65.5,51.7,29.78,SW,225,6.9,6.9,61,0.00,CLR,,0.00,WeatherDisplay:10.37,2013-03-16 20:25:00,
2013-03-16 16:30:00,65.7,51.9,29.77,WSW,248,7.4,7.4,61,0.00,CLR,,0.00,WeatherDisplay:10.37,2013-03-16 20:30:00,
2013-03-16 16:35:00,66.2,51.9,29.77,SW,225,8.1,8.1,60,0.00,CLR,,0.00,WeatherDisplay:10.37,2013-03-16 20:35:00,
2013-03-16 16:40:00,66.4,52.1,29.77,West,270,8.1,8.1,60,0.00,CLR,,0.00,WeatherDisplay:10.37,2013-03-16 20:40:00,
2013-03-16 16:45:00,65.8,52.0,29.77,West,270,7.4,7.4,61,0.00,CLR,,0.00,WeatherDisplay:10.37,2013-03-16 20:45:00,
2013-03-16 16:50:00,65.5,52.1,29.77,West,270,6.9,6.9,62,0.00,CLR,,0.00,WeatherDisplay:10.37,2013-03-16 20:50:00,
2013-03-16 16:55:00,64.0,52.4,29.77,SW,225,5.8,5.8,66,0.00,CLR,,0.00,WeatherDisplay:10.37,2013-03-16 20:55:00,
2013-03-16 17:00:00,64.8,51.5,29.77,SW,225,6.9,6.9,62,0.00,CLR,,0.00,WeatherDisplay:10.37,2013-03-16 21:00:00,
2013-03-16 17:05:00,64.4,52.0,29.76,West,270,8.1,8.1,64,0.00,CLR,,0.00,WeatherDisplay:10.37,2013-03-16 21:05:00,
2013-03-16 17:10:00,64.0,51.6,29.76,SW,225,8.1,8.1,64,0.00,CLR,,0.00,WeatherDisplay:10.37,2013-03-16 21:10:00,
2013-03-16 17:15:00,63.7,51.7,29.76,West,270,4.6,4.6,65,0.00,CLR,,0.00,WeatherDisplay:10.37,2013-03-16 21:15:00,
2013-03-16 17:20:00,63.3,51.3,29.75,SW,225,10.5,10.5,65,0.00,CLR,,0.00,WeatherDisplay:10.37,2013-03-16 21:20:00,
2013-03-16 17:25:00,63.1,51.6,29.75,West,270,8.1,8.1,66,0.00,CLR,,0.00,WeatherDisplay:10.37,2013-03-16 21:25:00,
2013-03-16 17:30:00,62.6,51.9,29.75,SSW,202,6.9,6.9,68,0.00,CLR,,0.00,WeatherDisplay:10.37,2013-03-16 21:30:00,
2013-03-16 17:35:00,62.2,51.5,29.75,SW,225,5.8,5.8,68,0.00,CLR,,0.00,WeatherDisplay:10.37,2013-03-16 21:35:00,
2013-03-16 17:40:00,62.1,51.4,29.75,SW,225,9.5,9.5,68,0.00,CLR,,0.00,WeatherDisplay:10.37,2013-03-16 21:40:00,
2013-03-16 17:45:00,61.9,51.6,29.75,SW,225,10.5,10.5,69,0.00,CLR,,0.00,WeatherDisplay:10.37,2013-03-16 21:45:00,
2013-03-16 17:50:00,61.3,51.4,29.75,West,270,6.9,6.9,70,0.00,CLR,,0.00,WeatherDisplay:10.37,2013-03-16 21:50:00,
2013-03-16 17:55:00,61.0,51.5,29.75,ESE,112,6.9,6.9,71,0.00,CLR,,0.00,WeatherDisplay:10.37,2013-03-16 21:55:00,
2013-03-16 18:00:00,60.8,51.3,29.75,SW,225,9.2,9.2,71,0.00,CLR,,0.00,WeatherDisplay:10.37,2013-03-16 22:00:00,
2013-03-16 18:05:00,60.8,51.7,29.75,WNW,292,6.9,6.9,72,0.00,CLR,,0.00,WeatherDisplay:10.37,2013-03-16 22:05:00,
2013-03-16 18:10:00,60.8,51.7,29.75,ESE,112,6.9,6.9,72,0.00,CLR,,0.00,WeatherDisplay:10.37,2013-03-16 22:10:00,
2013-03-16 18:15:00,60.4,51.7,29.75,West,270,8.1,8.1,73,0.00,CLR,,0.00,WeatherDisplay:10.37,2013-03-16 22:15:00,
2013-03-16 18:20:00,60.3,51.6,29.75,SW,225,9.2,9.2,73,0.00,CLR,,0.00,WeatherDisplay:10.37,2013-03-16 22:20:00,
2013-03-16 18:25:00,60.3,51.6,29.75,SW,225,11.5,11.5,73,0.00,CLR,,0.00,WeatherDisplay:10.37,2013-03-16 22:25:00,
2013-03-16 18:30:00,60.1,51.4,29.75,WSW,248,8.1,8.1,73,0.00,CLR,,0.00,WeatherDisplay:10.37,2013-03-16 22:30:00,
2013-03-16 18:35:00,59.9,51.6,29.75,SSW,202,10.4,10.4,74,0.00,CLR,,0.00,WeatherDisplay:10.37,2013-03-16 22:35:00,
2013-03-16 18:40:00,59.7,51.4,29.75,WSW,248,7.4,7.4,74,0.00,CLR,,0.00,WeatherDisplay:10.37,2013-03-16 22:40:00,
2013-03-16 18:45:00,59.5,51.2,29.75,SW,225,9.2,9.2,74,0.00,CLR,,0.00,WeatherDisplay:10.37,2013-03-16 22:45:00,
2013-03-16 18:50:00,59.5,51.6,29.75,SW,225,5.8,5.8,75,0.00,CLR,,0.00,WeatherDisplay:10.37,2013-03-16 22:50:00,
2013-03-16 18:55:00,59.4,51.5,29.75,ESE,112,6.9,6.9,75,0.00,CLR,,0.00,WeatherDisplay:10.37,2013-03-16 22:55:00,
2013-03-16 19:00:00,59.4,51.5,29.75,West,270,9.2,9.2,75,0.00,CLR,,0.00,WeatherDisplay:10.37,2013-03-16 23:00:00,
2013-03-16 19:05:00,59.2,51.3,29.75,West,270,6.9,7.8,75,0.00,CLR,,0.00,WeatherDisplay:10.37,2013-03-16 23:05:00,
2013-03-16 19:10:00,59.0,51.1,29.75,WSW,248,8.1,8.1,75,0.00,CLR,,0.00,WeatherDisplay:10.37,2013-03-16 23:10:00,
2013-03-16 19:15:00,58.8,50.9,29.75,WSW,248,8.1,8.1,75,0.00,CLR,,0.00,WeatherDisplay:10.37,2013-03-16 23:15:00,
2013-03-16 19:20:00,58.8,50.9,29.75,West,270,9.2,9.2,75,0.00,CLR,,0.00,WeatherDisplay:10.37,2013-03-16 23:20:00,
2013-03-16 19:25:00,58.8,50.9,29.75,West,270,9.2,9.2,75,0.00,CLR,,0.00,WeatherDisplay:10.37,2013-03-16 23:25:00,
2013-03-16 19:30:00,58.8,50.9,29.75,WSW,248,10.4,10.4,75,0.00,CLR,,0.00,WeatherDisplay:10.37,2013-03-16 23:30:00,
2013-03-16 19:35:00,58.6,50.7,29.75,SW,225,6.9,6.9,75,0.00,CLR,,0.00,WeatherDisplay:10.37,2013-03-16 23:35:00,
2013-03-16 19:40:00,58.6,51.1,29.76,SSW,202,6.9,6.9,76,0.00,CLR,,0.00,WeatherDisplay:10.37,2013-03-16 23:40:00,
2013-03-16 19:45:00,58.5,51.0,29.76,WSW,248,6.9,6.9,76,0.00,CLR,,0.00,WeatherDisplay:10.37,2013-03-16 23:45:00,
2013-03-16 19:50:00,58.3,50.8,29.76,SW,225,8.1,8.1,76,0.00,CLR,,0.00,WeatherDisplay:10.37,2013-03-16 23:50:00,
2013-03-16 19:55:00,58.3,50.8,29.76,ESE,112,8.1,8.1,76,0.00,CLR,,0.00,WeatherDisplay:10.37,2013-03-16 23:55:00,
2013-03-16 20:00:00,58.3,51.1,29.76,East,90,8.4,8.4,77,0.00,CLR,,0.00,WeatherDisplay:10.37,2013-03-17 00:00:00,
2013-03-16 20:05:00,58.3,51.1,29.77,West,270,9.5,9.5,77,0.00,CLR,,0.00,WeatherDisplay:10.37,2013-03-17 00:05:00,
2013-03-16 20:10:00,58.3,51.1,29.77,South,180,9.2,9.2,77,0.00,CLR,,0.00,WeatherDisplay:10.37,2013-03-17 00:10:00,
2013-03-16 20:15:00,58.3,51.1,29.78,SW,225,6.9,6.9,77,0.00,CLR,,0.00,WeatherDisplay:10.37,2013-03-17 00:15:00,
2013-03-16 20:20:00,58.3,51.1,29.78,SSW,202,9.2,9.2,77,0.00,CLR,,0.00,WeatherDisplay:10.37,2013-03-17 00:20:00,
2013-03-16 20:25:00,58.1,50.9,29.78,West,270,6.9,6.9,77,0.00,CLR,,0.00,WeatherDisplay:10.37,2013-03-17 00:25:00,
2013-03-16 20:30:00,58.1,50.9,29.79,WSW,248,8.1,8.1,77,0.00,CLR,,0.00,WeatherDisplay:10.37,2013-03-17 00:30:00,
2013-03-16 20:35:00,58.1,50.9,29.79,WSW,248,9.2,9.2,77,0.00,CLR,,0.00,WeatherDisplay:10.37,2013-03-17 00:35:00,
2013-03-16 20:40:00,57.9,50.7,29.79,WSW,248,8.1,8.1,77,0.00,CLR,,0.00,WeatherDisplay:10.37,2013-03-17 00:40:00,
2013-03-16 20:45:00,57.9,51.1,29.79,South,180,6.9,6.9,78,0.00,CLR,,0.00,WeatherDisplay:10.37,2013-03-17 00:45:00,
2013-03-16 20:50:00,57.9,51.1,29.79,SSW,202,7.4,8.7,78,0.00,CLR,,0.00,WeatherDisplay:10.37,2013-03-17 00:50:00,
2013-03-16 20:55:00,57.9,50.7,29.79,SW,225,7.4,7.4,77,0.00,CLR,,0.00,WeatherDisplay:10.37,2013-03-17 00:55:00,
2013-03-16 21:00:00,57.9,51.1,29.79,West,270,6.9,6.9,78,0.00,CLR,,0.00,WeatherDisplay:10.37,2013-03-17 01:00:00,
2013-03-16 21:05:00,57.9,51.1,29.80,SW,225,8.1,8.1,78,0.00,CLR,,0.00,WeatherDisplay:10.37,2013-03-17 01:05:00,
2013-03-16 21:10:00,57.7,50.9,29.80,WSW,248,8.1,8.1,78,0.00,CLR,,0.00,WeatherDisplay:10.37,2013-03-17 01:10:00,
2013-03-16 21:15:00,57.7,50.9,29.80,West,270,6.9,6.9,78,0.00,CLR,,0.00,WeatherDisplay:10.37,2013-03-17 01:15:00,
2013-03-16 21:20:00,57.7,50.9,29.80,West,270,5.8,5.8,78,0.00,CLR,,0.00,WeatherDisplay:10.37,2013-03-17 01:20:00,
2013-03-16 21:25:00,57.4,50.6,29.80,WSW,248,6.9,6.9,78,0.00,CLR,,0.00,WeatherDisplay:10.37,2013-03-17 01:25:00,
2013-03-16 21:30:00,57.4,50.6,29.81,WSW,248,5.4,5.4,78,0.00,CLR,,0.00,WeatherDisplay:10.37,2013-03-17 01:30:00,
2013-03-16 21:35:00,57.4,50.6,29.81,SW,225,7.4,7.4,78,0.00,CLR,,0.00,WeatherDisplay:10.37,2013-03-17 01:35:00,
2013-03-16 21:40:00,57.4,50.6,29.82,SW,225,7.4,7.4,78,0.00,CLR,,0.00,WeatherDisplay:10.37,2013-03-17 01:40:00,
2013-03-16 21:45:00,57.4,50.9,29.82,WSW,248,6.9,6.9,79,0.00,CLR,,0.00,WeatherDisplay:10.37,2013-03-17 01:45:00,
2013-03-16 21:50:00,57.4,50.9,29.82,SSW,202,9.5,9.5,79,0.00,CLR,,0.00,WeatherDisplay:10.37,2013-03-17 01:50:00,
2013-03-16 21:55:00,57.4,50.9,29.82,SW,225,7.4,7.4,79,0.00,CLR,,0.00,WeatherDisplay:10.37,2013-03-17 01:55:00,
2013-03-16 22:00:00,57.6,50.8,29.82,WSW,248,8.1,8.1,78,0.00,CLR,,0.00,WeatherDisplay:10.37,2013-03-17 02:00:00,
2013-03-16 22:05:00,57.7,50.9,29.82,SSE,158,6.9,6.9,78,0.00,CLR,,0.00,WeatherDisplay:10.37,2013-03-17 02:05:00,
2013-03-16 22:11:00,57.7,50.9,29.82,SW,225,6.9,6.9,78,0.00,CLR,,0.00,WeatherDisplay:10.37,2013-03-17 02:11:00,
2013-03-16 22:16:00,57.7,50.9,29.83,West,270,5.8,5.8,78,0.00,CLR,,0.00,WeatherDisplay:10.37,2013-03-17 02:16:00,
2013-03-16 22:21:00,57.6,50.8,29.83,WSW,248,10.5,10.5,78,0.00,CLR,,0.00,WeatherDisplay:10.37,2013-03-17 02:21:00,
2013-03-16 22:26:00,57.6,50.8,29.83,WSW,248,5.8,5.8,78,0.00,CLR,,0.00,WeatherDisplay:10.37,2013-03-17 02:26:00,
2013-03-16 22:31:00,57.7,50.9,29.84,ENE,68,6.9,6.9,78,0.00,CLR,,0.00,WeatherDisplay:10.37,2013-03-17 02:31:00,
2013-03-16 22:36:00,57.6,51.1,29.84,SW,225,6.9,6.9,79,0.00,CLR,,0.00,WeatherDisplay:10.37,2013-03-17 02:36:00,
2013-03-16 22:41:00,57.6,51.1,29.84,WSW,248,5.8,5.8,79,0.00,CLR,,0.00,WeatherDisplay:10.37,2013-03-17 02:41:00,
2013-03-16 22:46:00,57.6,51.1,29.84,SW,225,4.6,4.6,79,0.00,CLR,,0.00,WeatherDisplay:10.37,2013-03-17 02:46:00,
2013-03-16 22:52:00,57.4,50.9,29.85,WSW,248,7.4,7.4,79,0.00,CLR,,0.00,WeatherDisplay:10.37,2013-03-17 02:52:00,
2013-03-16 22:57:00,57.4,50.9,29.85,WSW,248,5.8,5.8,79,0.00,CLR,,0.00,WeatherDisplay:10.37,2013-03-17 02:57:00,
2013-03-16 23:02:00,57.2,50.7,29.85,WSW,248,5.8,5.8,79,0.00,CLR,,0.00,WeatherDisplay:10.37,2013-03-17 03:02:00,
2013-03-16 23:07:00,57.2,51.1,29.85,SW,225,6.9,6.9,80,0.00,CLR,,0.00,WeatherDisplay:10.37,2013-03-17 03:07:00,
2013-03-16 23:12:00,57.2,51.1,29.85,SW,225,6.9,6.9,80,0.00,CLR,,0.00,WeatherDisplay:10.37,2013-03-17 03:12:00,
2013-03-16 23:17:00,57.0,50.9,29.85,South,180,4.6,4.6,80,0.00,CLR,,0.00,WeatherDisplay:10.37,2013-03-17 03:17:00,
2013-03-16 23:22:00,56.8,51.0,29.85,WSW,248,4.6,4.6,81,0.00,CLR,,0.00,WeatherDisplay:10.37,2013-03-17 03:22:00,
2013-03-16 23:27:00,56.7,50.9,29.86,WSW,248,4.6,4.6,81,0.00,CLR,,0.00,WeatherDisplay:10.37,2013-03-17 03:27:00,
2013-03-16 23:32:00,56.7,50.9,29.86,SW,225,6.9,6.9,81,0.00,CLR,,0.00,WeatherDisplay:10.37,2013-03-17 03:32:00,
2013-03-16 23:37:00,56.7,50.9,29.86,WSW,248,5.8,5.8,81,0.00,CLR,,0.00,WeatherDisplay:10.37,2013-03-17 03:37:00,
2013-03-16 23:42:00,56.7,50.9,29.86,SSW,202,4.6,4.6,81,0.00,CLR,,0.00,WeatherDisplay:10.37,2013-03-17 03:42:00,
2013-03-16 23:47:00,56.3,50.9,29.86,SSW,202,3.5,0.0,82,0.00,CLR,,0.00,WeatherDisplay:10.37,2013-03-17 03:47:00,
2013-03-16 23:52:00,56.3,51.2,29.86,SSW,202,4.3,4.3,83,0.00,CLR,,0.00,WeatherDisplay:10.37,2013-03-17 03:52:00,
2013-03-16 23:57:00,56.1,51.0,29.86,NE,45,4.6,4.6,83,0.00,CLR,,0.00,WeatherDisplay:10.37,2013-03-17 03:57:00,